CAPE
0 0 0 0 0 0 0 0 0 0 0 0 0 0 0 0 0 0 0 0 0 0 0 0 0 0 0 0 0 0 0 0 0 0 0 0 0 0 0 0 0 0 0 0
0 0 0 0 0 0 0 0 0 0 0 0 0 0 0 0 0 0 0 0 0 0 0 0 0 0 0 0 0 0 0 0 0 0 0 0 0 0 0 0 0 0 0 0
0 0 0 0 0 0 0 0 0 0 0 0 0 0 0 0 0 0 0 0 0 0 0 0 0 0 0 0 0 0 0 0 0 0 0 0 0 0 0 0 0 0 0 0
0 0 0 0 0 0 0 0 0 0 0 0 0 0 0 0 0 0 0 0 0 0 0 0 0 0 0 0 0 0 0 0 0 0 0 0 0 0 0 0 0 0 0 0
0 0 0 0 0 0 0 0 0 0 0 0 0 0 0 0 0 0 0 0 0 0 0 0 0 0 0 0 0 0 0 0 0 0 0 0 0 0 0 0 0 0 0 0
0 0 0 0 0 0 0 0 0 0 0 0 0 0 0 0 0 0 0 0 0 0 0 0 0 0 0 0 0 0 0 0 0 0 0 0 0 0 0 0 0 0 0 0
0 0 0 0 0 0 0 0 0 0 0 0 0 0 0 0 0 0 0 0 0 0 0 0 0 0 0 0 0 0 0 0 0 0 0 0 0 0 0 0 0 0 0 0
0 0 0 0 0 0 0 0 0 0 0 0 0 0 0 0 0 0 0 0 0 0 0 0 0 0 0 0 0 0 0 0 0 0 0 0 0 0 0 0 0 0 0 0
0 0 0 0 0 0 0 0 0 0 0 0 0 0 0 0 0 0 0 0 0 0 0 0 0 0 0 0 0 0 0 0 0 0 0 0 0 0 0 0 0 0 0 0
0 0 0 0 0 0 0 0 0 0 0 0 0 0 0 0 0 0 0 0 0 0 0 0 0 0 0 0 0 0 0 0 0 0 0 0 0 0 0 0 0 0 0 0
0 0 0 0 0 0 0 0 0 0 0 1 0 0 0 0 0 0 0 0 0 0 0 0 0 0 0 0 0 0 0 0 0 0 0 0 0 0 0 0 0 0 0 0
0 14 1 0 0 0 0 0 0 0 0 0 0 0 0 0 0 0 0 0 0 0 0 0 0 0 0 0 0 0 0 0 0 0 0 0 0 0 0 0 0 0 0 0
0 10 14 0 0 0 0 0 0 0 0 0 4 0 0 0 0 0 0 0 0 0 0 0 0 0 0 0 0 0 0 0 0 0 0 0 0 0 0 0 0 0 0 0
19 47 25 25 1 15 2 0 0 2 6 0 0 0 0 0 0 0 0 0 0 0 0 0 0 0 0 0 0 0 0 0 0 0 0 0 0 0 0 0 0 0 0 0
3 0 14 1 0 1 2 1 0 2 0 5 0 0 0 0 0 0 0 0 0 0 0 0 0 0 0 0 0 0 0 0 0 0 0 0 0 0 0 0 0 0 0 0
0 4 2 0 0 1 0 0 0 0 0 23 1 0 0 0 0 0 0 0 0 0 0 0 0 0 0 0 0 0 0 0 0 0 0 0 0 0 0 0 0 0 0 0
17 4 0 0 0 1 0 0 0 0 0 0 0 0 0 0 5 0 0 0 0 0 0 0 0 0 0 0 0 0 0 0 0 0 0 0 0 0 0 0 0 0 0 0
27 9 1 14 3 0 0 0 0 0 0 0 0 0 0 0 0 0 0 0 0 0 0 0 0 0 0 0 0 0 0 0 0 0 0 0 0 0 0 0 0 0 0 0
12 26 32 41 44 0 0 0 0 0 0 0 0 0 0 0 0 0 0 0 0 0 0 0 0 0 0 0 0 0 0 0 0 0 0 0 0 0 0 0 0 0 0 0
72 25 34 0 0 0 0 0 0 0 0 0 0 0 0 0 0 0 0 0 0 0 0 0 0 0 0 0 0 0 0 0 0 0 0 0 0 0 0 0 0 0 0 0
10 13 0 0 0 0 0 0 0 0 0 0 0 0 5 0 0 0 1 0 0 0 0 0 0 0 0 0 0 1 0 0 0 0 0 0 0 0 0 0 0 0 0 0
13 0 0 0 4 0 0 0 0 0 0 0 0 0 0 0 0 0 0 0 0 0 0 0 0 3 2 0 0 0 1 0 0 0 0 0 0 0 0 0 0 0 0 0
0 0 0 0 0 0 0 0 0 0 0 0 0 0 0 0 0 0 0 0 0 0 0 0 0 0 0 0 0 0 1 0 0 0 0 0 1 5 2 0 0 0 0 0
0 0 0 0 0 0 0 0 0 0 0 0 0 0 0 0 0 0 0 0 0 0 0 0 0 0 0 0 0 0 0 0 0 0 0 0 1 2 2 0 0 0 0 0
0 0 0 0 0 0 0 0 0 0 0 0 0 0 0 0 0 0 0 0 0 0 0 0 0 0 0 0 0 1 0 0 0 0 1 3 1 1 1 0 0 0 0 0
0 0 0 0 0 0 0 0 0 0 0 0 0 0 0 0 0 0 0 0 0 0 0 0 0 0 0 0 0 0 0 0 0 0 2 2 0 0 0 0 0 0 0 0
CIN
-0 -0 -0 -0 -0 -0 -0 -0 -0 -0 -0 -0 -0 -0 -0 -0 -0 -0 -0 -0 -0 -0 -0 -0 -0 -0 -0 -0 -0 -0 -0 -0 -0 -0 -0 -0 -0 -0 -0 -0 -0 -0 -0 -0
-0 -0 -0 -0 -0 -0 -0 -0 -0 -0 -0 -0 -0 -0 -0 -0 -0 -0 -0 -0 -0 -0 -0 -0 -0 -0 -0 -0 -0 -0 -0 -0 -0 -0 -0 -0 -0 -0 -0 -0 -0 -0 -0 -0
-0 -0 -0 -0 -0 -0 -0 -0 -0 -0 -0 -0 -0 -0 -0 -0 -0 -0 -0 -0 -0 -0 -0 -0 -0 -0 -0 -0 -0 -0 -0 -0 -0 -0 -0 -0 -0 -0 -0 -0 -0 -0 -0 -0
-0 -0 -0 -0 -0 -0 -0 -0 -0 -0 -0 -0 -0 -0 -0 -0 -0 -0 -0 -0 -0 -0 -0 -0 -0 -0 -0 -0 -0 -0 -0 -0 -0 -0 -0 -0 -0 -0 -0 -0 -0 -0 -0 -0
-0 -0 -0 -0 -0 -0 -0 -0 -0 -0 -0 -0 -0 -0 -0 -0 -0 -0 -0 -0 -0 -0 -0 -0 -0 -0 -0 -0 -0 -0 -0 -0 -0 -0 -0 -0 -0 -0 -0 -0 -0 -0 -0 -0
-0 -0 -0 -0 -0 -0 -0 -0 -0 -0 -0 -0 -0 -0 -0 -0 -0 -0 -0 -0 -0 -0 -0 -0 -0 -0 -0 -0 -0 -0 -0 -0 -0 -0 -0 -0 -0 -0 -0 -0 -0 -0 -0 -0
-0 -0 -0 -0 -0 -0 -0 -0 -0 -0 -0 -0 -0 -0 -0 -0 -0 -0 -0 -0 -0 -0 -0 -0 -0 -0 -0 -0 -0 -0 -0 -0 -0 -0 -0 -0 -0 -0 -0 -0 -0 -0 -0 -0
-0 -0 -0 -0 -0 -0 -0 -0 -0 -0 -0 -0 -0 -0 -0 -0 -0 -0 -0 -0 -0 -0 -0 -0 -0 -0 -0 -0 -0 -0 -0 -0 -0 -0 -0 -0 -0 -0 -0 -0 -0 -0 -0 -0
-0 -0 -0 -0 -0 -0 -0 -0 -0 -0 -0 -0 -0 -0 -0 -0 -0 -0 -0 -0 -0 -0 -0 -0 -0 -0 -0 -0 -0 -0 -0 -0 -0 -0 -0 -0 -0 -0 -0 -0 -0 -0 -0 -0
-0 -0 -0 -0 -0 -0 -0 -0 -0 -0 -0 -0 -0 -0 -0 -0 -0 -0 -0 -0 -0 -0 -0 -0 -0 -0 -0 -0 -0 -0 -0 -0 -0 -0 -0 -0 -0 -0 -0 -0 -0 -0 -0 -0
-0 -0 -0 -0 -0 -0 -0 -0 -0 -0 -0 -0 -0 -0 -0 -0 -0 -0 -0 -0 -0 -0 -0 -0 -0 -0 -0 -0 -0 -0 -0 -0 -0 -0 -0 -0 -0 -0 -0 -0 -0 -0 -0 -0
-0 -0 -0 -0 -0 -0 -0 -0 -0 -0 -0 -0 -0 -0 -0 -0 -0 -0 -0 -0 -0 -0 -0 -0 -0 -0 -0 -0 -0 -0 -0 -0 -0 -0 -0 -0 -0 -0 -0 -0 -0 -0 -0 -0
-0 -1 -0 -0 -0 -0 -0 -0 -0 -0 -0 -0 -0 -0 -0 -0 -0 -0 -0 -0 -0 -0 -0 -0 -0 -0 -0 -0 -0 -0 -0 -0 -0 -0 -0 -0 -0 -0 -0 -0 -0 -0 -0 -0
-29 -12 -3 -0 -9 -0 -0 -0 -0 -0 -0 -0 -0 -0 -0 -0 -0 -0 -0 -0 -0 -0 -0 -0 -0 -0 -0 -0 -0 -0 -0 -0 -0 -0 -0 -0 -0 -0 -0 -0 -0 -0 -0 -0
-15 -0 -6 -6 -0 -0 -0 -0 -0 -0 -0 -0 -0 -0 -0 -0 -0 -0 -0 -0 -0 -0 -0 -0 -0 -0 -0 -0 -0 -0 -0 -0 -0 -0 -0 -0 -0 -0 -0 -0 -0 -0 -0 -0
-0 -0 -0 -0 -0 -0 -0 -0 -0 -0 -0 -40 -0 -0 -0 -0 -0 -0 -0 -0 -0 -0 -0 -0 -0 -0 -0 -0 -0 -0 -0 -0 -0 -0 -0 -0 -0 -0 -0 -0 -0 -0 -0 -0
-4 -1 -0 -1 -0 -0 -0 -0 -0 -0 -0 -0 -0 -0 -0 -0 -0 -0 -0 -0 -0 -0 -0 -0 -0 -0 -0 -0 -0 -0 -0 -0 -0 -0 -0 -0 -0 -0 -0 -0 -0 -0 -0 -0
-6 -1 -10 -18 -43 -0 -0 -0 -0 -0 -0 -0 -0 -0 -0 -0 -0 -0 -0 -0 -0 -0 -0 -0 -0 -0 -0 -0 -0 -0 -0 -0 -0 -0 -0 -0 -0 -0 -0 -0 -0 -0 -0 -0
-8 -15 -2 -2 -3 -0 -0 -0 -0 -0 -0 -0 -0 -0 -0 -0 -0 -0 -0 -0 -0 -0 -0 -0 -0 -0 -0 -0 -0 -0 -0 -0 -0 -0 -0 -0 -0 -0 -0 -0 -0 -0 -0 -0
-13 -5 -4 -0 -0 -0 -0 -0 -0 -0 -0 -0 -0 -0 -0 -0 -10 -0 -0 -0 -0 -0 -0 -0 -0 -0 -0 -0 -0 -0 -0 -0 -0 -0 -0 -0 -0 -0 -0 -0 -0 -0 -0 -0
-5 -14 -20 -0 -0 -0 -0 -0 -0 -0 -0 -0 -0 -0 -70 -0 -0 -0 -0 -0 -0 -0 -0 -0 -0 -0 -0 -0 -0 -0 -0 -0 -0 -0 -0 -0 -0 -0 -0 -0 -0 -0 -0 -0
-11 -0 -0 -0 -4 -0 -0 -0 -0 -0 -0 -0 -0 -0 -0 -0 -0 -0 -0 -0 -0 -0 -0 -0 -0 -0 -0 -0 -0 -0 -0 -0 -0 -0 -0 -0 -0 -0 -0 -0 -0 -0 -0 -0
-0 -0 -0 -0 -0 -0 -0 -0 -0 -0 -0 -0 -0 -0 -0 -0 -0 -0 -0 -0 -0 -0 -0 -0 -0 -0 -0 -0 -0 -0 -0 -0 -0 -0 -0 -0 -0 -0 -0 -0 -0 -0 -0 -0
-0 -0 -0 -0 -0 -0 -0 -0 -0 -0 -0 -0 -0 -0 -0 -0 -0 -0 -0 -0 -0 -0 -0 -0 -0 -0 -0 -0 -0 -0 -0 -0 -0 -0 -0 -0 -0 -0 -0 -0 -0 -0 -0 -0
-0 -0 -0 -0 -0 -0 -0 -0 -0 -0 -0 -0 -0 -0 -0 -0 -0 -0 -0 -0 -0 -0 -0 -0 -0 -0 -0 -0 -0 -0 -0 -0 -0 -0 -0 -0 -0 -0 -0 -0 -0 -0 -0 -0
-0 -0 -0 -0 -0 -0 -0 -0 -0 -0 -0 -0 -0 -0 -0 -0 -0 -0 -0 -0 -0 -0 -0 -0 -0 -0 -0 -0 -0 -0 -0 -0 -0 -0 -0 -0 -0 -0 -0 -0 -0 -0 -0 -0
Wind_Speed
3 4 9 19 10 2 0 4 5 3 6 4 8 10 13 10 10 8 8 12 13 12 8 9 8 6 6 4 5 5 6 4 4 2 4 4 4 4 5 6 7 8 8 8
1 10 14 3 6 8 8 10 9 6 8 4 6 14 11 8 14 21 21 16 16 11 14 11 10 7 6 6 4 5 6 6 3 3 3 4 4 4 4 3 5 6 8 8
12 7 7 10 7 5 8 12 7 11 6 7 4 27 14 9 5 16 14 18 12 16 16 15 14 9 7 8 7 6 5 6 4 5 6 5 4 3 3 3 3 5 6 6
10 8 6 4 6 11 13 9 11 9 2 8 6 18 10 7 13 15 16 18 16 18 15 15 15 10 9 7 6 6 6 6 5 5 5 4 3 3 2 2 2 4 6 6
10 7 8 15 17 11 6 7 8 7 5 4 8 5 3 11 9 14 19 17 19 19 19 18 16 12 8 8 7 6 6 6 5 6 7 7 8 4 3 3 4 5 4 5
5 3 6 9 5 11 3 0 3 3 5 7 8 10 32 9 17 12 15 21 22 19 18 17 14 13 10 8 7 7 7 6 6 7 6 8 9 7 4 4 4 3 3 4
6 18 4 2 2 3 4 3 3 2 3 11 11 10 31 6 5 9 18 17 17 16 18 19 19 15 13 12 10 8 7 6 6 7 6 7 7 7 7 5 3 4 3 4
4 7 9 8 20 10 12 10 6 6 5 6 7 13 10 6 4 1 9 14 13 16 17 19 19 16 15 13 11 8 8 8 7 7 6 6 6 5 4 5 3 3 4 4
3 6 1 2 11 14 5 11 18 10 8 5 6 10 7 3 2 3 7 12 17 17 17 19 18 16 16 14 12 11 10 8 8 7 6 6 5 6 6 6 5 5 4 5
3 12 4 4 2 6 12 2 4 1 6 9 11 15 16 6 7 4 5 9 10 11 14 16 16 16 14 13 11 10 10 10 8 7 7 6 5 6 7 7 7 6 5 6
5 3 9 4 5 7 2 5 6 3 6 5 4 8 8 14 15 11 11 9 9 12 14 14 14 14 14 12 12 11 10 10 8 6 6 7 5 5 7 7 6 6 6 6
4 1 6 7 15 12 14 5 1 7 9 5 5 12 4 6 6 7 6 9 10 13 15 13 14 14 13 13 11 11 9 10 7 7 7 6 7 7 8 7 7 5 6 4
2 3 7 16 6 8 6 8 12 11 2 9 11 9 5 5 6 7 5 7 11 13 14 14 13 13 13 12 11 11 10 9 8 9 9 7 7 7 8 8 7 6 6 5
3 3 6 9 10 1 6 14 10 3 6 13 14 22 28 9 7 3 6 11 13 14 17 15 15 14 13 13 13 12 10 9 9 10 10 9 8 8 7 7 7 6 6 5
1 5 7 10 10 7 9 12 12 11 11 7 13 16 24 3 5 4 6 5 12 15 16 17 17 15 16 16 15 14 13 13 12 12 11 9 9 9 8 8 6 6 6 6
4 5 6 6 12 13 8 15 11 16 16 10 6 14 10 6 7 5 5 10 11 13 16 15 16 21 20 18 17 17 16 14 13 11 11 10 10 9 8 8 7 8 7 6
6 3 4 8 4 0 8 14 13 11 6 5 8 8 9 10 12 9 5 8 11 12 14 16 19 18 17 17 14 15 15 15 14 12 11 10 11 10 9 8 7 8 7 5
9 6 3 4 2 7 8 4 6 14 9 14 10 11 10 11 9 10 11 10 11 12 15 17 14 14 14 13 15 17 16 15 14 12 12 12 11 11 10 8 8 7 6 4
16 8 5 4 5 7 10 6 7 7 8 15 14 12 11 12 7 11 10 2 5 7 14 10 11 12 12 18 18 16 16 15 15 14 13 12 12 12 11 10 8 6 8 5
17 14 9 4 4 7 5 4 2 1 6 3 5 6 5 4 2 8 3 6 4 5 6 8 12 15 16 16 17 17 16 16 14 13 13 12 11 12 11 11 9 2 5 5
8 10 17 7 5 7 7 8 1 2 7 3 0 3 3 5 5 3 5 4 4 4 2 7 15 16 16 16 16 15 15 14 13 13 13 12 11 11 12 10 7 5 7 7
12 9 5 7 4 11 8 2 8 7 3 3 4 4 5 4 2 1 2 2 5 4 6 10 12 12 13 15 16 16 14 12 14 14 14 13 13 11 10 12 7 8 7 6
4 6 7 9 9 5 4 6 4 3 4 6 4 6 5 5 4 2 1 2 4 3 5 7 12 13 11 13 14 15 13 15 15 14 13 12 14 12 11 11 9 7 4 5
3 4 4 4 6 8 7 5 4 2 5 4 6 5 4 4 5 4 3 4 3 4 6 8 10 12 11 11 13 14 15 13 14 14 13 12 13 14 12 9 8 7 5 5
6 12 7 3 5 3 7 5 8 7 3 1 3 1 1 2 2 3 5 4 4 5 6 6 8 10 11 11 13 13 15 15 14 14 13 12 9 10 10 9 8 7 4 6
5 7 6 6 7 6 4 3 3 5 4 5 5 4 2 3 4 4 4 5 5 6 6 6 7 10 11 12 13 12 13 14 15 14 10 9 8 8 8 8 7 11 11 12
Wind_Direction
173 144 203 219 212 244 177 211 234 247 262 266 232 245 252 200 195 181 196 188 188 184 161 161 155 148 139 131 120 117 114 105 124 111 102 74 67 51 47 48 39 34 29 26
121 227 223 192 207 212 233 255 257 274 259 257 271 255 243 204 205 195 193 192 198 172 166 167 161 158 166 144 123 102 99 102 111 109 112 119 122 78 83 56 44 34 31 26
199 211 211 198 214 202 221 224 241 245 323 271 301 277 249 230 216 212 208 204 193 185 175 171 171 171 159 152 146 126 111 100 100 114 111 98 97 79 52 29 40 31 33 29
245 212 200 159 212 191 249 204 232 247 182 260 169 283 234 199 210 192 197 193 186 183 179 174 172 168 165 153 138 131 115 101 92 103 106 108 113 112 69 64 53 38 34 27
237 177 196 227 228 186 231 176 201 214 213 290 216 294 231 188 202 204 207 191 192 188 176 176 174 164 151 142 138 119 102 90 90 91 99 103 97 98 112 81 71 49 31 34
257 284 160 195 228 199 180 82 239 89 135 255 171 190 276 207 210 205 205 198 190 179 174 170 158 148 144 133 130 132 120 103 91 92 97 107 117 119 107 87 69 41 25 27
285 253 265 220 251 164 138 120 293 285 170 242 166 187 247 309 203 191 194 201 189 171 167 165 161 157 151 152 148 130 126 117 112 102 101 108 114 114 111 106 89 59 32 28
213 311 183 198 212 198 212 173 198 246 213 258 177 232 246 248 275 177 188 184 160 170 173 172 163 155 155 151 145 138 142 130 125 121 124 120 121 114 109 107 101 86 70 45
230 258 312 147 238 196 226 206 217 253 263 307 280 295 290 287 267 130 151 155 182 178 173 167 157 155 154 154 154 151 141 136 136 136 133 125 124 117 111 96 83 70 52 64
289 293 222 336 303 244 218 196 97 140 224 235 241 263 256 331 288 345 156 205 188 165 164 160 156 153 155 154 148 139 145 146 143 147 135 133 127 112 108 101 93 81 64 53
359 221 270 30 234 267 294 249 243 168 206 258 260 244 221 237 231 230 221 207 172 162 163 158 152 149 148 147 146 146 147 145 148 150 134 126 117 104 98 95 89 83 70 53
13 97 281 270 274 255 246 244 165 232 251 239 249 255 42 339 273 230 216 161 155 157 156 151 146 145 146 148 148 151 148 147 152 146 129 113 114 113 101 97 87 79 80 60
336 31 322 322 348 7 11 11 14 340 122 248 269 255 97 32 329 311 171 139 145 141 140 145 149 155 151 152 153 155 149 149 149 137 131 125 123 107 102 104 99 84 78 57
143 159 221 269 281 285 310 324 332 46 277 276 248 267 280 286 287 255 161 156 156 159 160 157 157 159 157 159 162 160 153 151 149 138 135 135 126 115 107 107 92 90 73 74
194 221 213 230 235 238 248 255 283 286 265 263 317 284 258 345 298 192 164 169 165 170 168 172 164 164 168 171 171 163 163 158 153 142 134 134 122 118 116 107 108 99 84 67
181 254 195 263 225 228 253 250 253 254 265 237 297 323 342 337 328 348 159 168 199 200 176 182 186 174 177 176 172 171 168 156 145 142 132 133 127 119 115 119 116 99 82 69
198 216 203 252 178 164 271 244 226 233 210 218 233 210 248 284 311 289 273 195 208 208 193 177 203 196 177 175 166 162 156 149 147 135 137 140 131 129 125 125 121 104 87 76
220 204 208 265 177 237 241 205 201 224 235 217 258 259 261 244 219 256 277 257 238 212 210 211 186 189 181 159 158 156 150 142 138 147 144 146 137 130 127 122 111 99 91 89
212 207 230 229 216 299 297 253 182 195 262 231 231 270 279 259 229 278 266 232 303 205 212 209 195 179 165 156 157 150 147 146 147 151 148 145 144 137 133 124 122 115 106 78
209 206 215 165 206 221 233 283 177 213 286 221 180 244 269 140 182 253 9 351 330 309 266 187 158 154 158 162 149 152 149 149 153 151 149 144 142 136 136 129 129 102 96 97
204 203 214 198 210 275 236 241 106 131 245 209 267 294 185 202 208 321 344 356 309 309 342 138 151 155 155 151 148 149 149 158 143 143 138 138 135 134 136 131 119 118 101 94
198 176 204 208 213 256 206 130 179 214 306 316 308 265 237 261 295 277 108 69 357 46 80 113 129 139 144 146 148 145 150 139 138 139 137 134 133 140 145 126 129 112 107 110
228 202 181 183 206 226 242 203 201 143 237 275 257 258 204 192 215 176 351 83 100 85 103 113 128 132 141 151 145 141 142 138 138 134 134 136 140 146 142 136 128 119 125 126
228 146 216 112 221 228 240 281 278 222 224 265 271 287 186 172 161 140 118 109 78 86 104 124 131 136 140 139 137 135 136 139 134 131 137 144 151 149 146 139 140 143 143 144
183 160 178 278 278 335 291 252 257 262 259 224 77 354 159 184 172 145 133 125 123 120 118 129 136 138 136 136 130 138 138 139 136 138 145 145 153 141 144 146 157 154 159 160
191 172 164 206 200 160 210 184 222 240 260 268 157 131 167 144 180 137 149 143 148 140 129 121 131 133 134 132 133 136 139 145 142 144 146 146 141 136 133 138 131 151 156 157